User: anonymous   Login
Location: Taukkyan
(23.1052°N, 94.0030°E)
Time: 17:47:15
(UTC+00:00)
Language:

Cosmos 1386 Rocket - Orbit

View from above orbital plane
View from above orbital plane
View from above satellite
View from above satellite

Ground track
Ground track

The orbit data is extracted from the following two-line orbital elements,

1 13354U 82069B   20263.10561926  .00000060  00000-0  43376-4 0  9997
2 13354  82.9631 176.0181 0052843  30.0389 330.3782 13.78911367921774
Epoch (UTC): 19 September 2020 02:32:05
Eccentricity: 0.0052843
inclination: 82.9631°
perigee height: 929 km
apogee height: 1006 km
right ascension of ascending node: 176.0181°
argument of perigee: 30.0389°
revolutions per day: 13.78911367
mean anomaly at epoch: 330.3782°
orbit number at epoch: 92177

The dashed part of the orbit path shows where the satellite is in the earth's shadow,  

DLR